Location: Home
(42.5358°N, 72.7383°W)
Time: 15:34:51
(UTC-04:00)

Kosmos-337 - Pass Details

Date: 10 July 2022
Orbit: 1467 x 1552 km, 74.0° (Epoch: 18 August)

Event Time Altitude Azimuth Distance (km) Brightness Sun altitude
Rises 22:54:09 0° 343° (NNW) 4,733 ? -19.5°
Reaches altitude 10° 22:58:02 10° 357° (N) 3,743 ? -19.8°
Maximum altitude 23:05:05 24° 48° (NE) 2,784 ? -20.4°
Drops below altitude 10° 23:12:01 10° 99° (E) 3,696 ? -21.0°
Enters shadow 23:12:43 - 102° (ESE) 3,860 ? -21.1°
